User: anonymous   Login
Location: Beekmeers
(50.8953°N, 3.6968°E)
Time: 06:41:54
(UTC+00:00)
Language:

Cosmos 1782 Rocket - Orbit

View from above orbital plane
View from above orbital plane
View from above satellite
View from above satellite

Ground track
Ground track

The orbit data is extracted from the following two-line orbital elements,

1 16987U 86074B   24205.02322602  .00001056  00000-0  12297-3 0  9992
2 16987  82.5142  41.1431 0017820   0.3970 112.7272 14.84258121 21715
Epoch (UTC): 23 July 2024 00:33:26
Eccentricity: 0.0017820
inclination: 82.5142°
perigee height: 603 km
apogee height: 628 km
right ascension of ascending node: 41.1431°
argument of perigee: 0.3970°
revolutions per day: 14.84258121
mean anomaly at epoch: 112.7272°
orbit number at epoch: 2171

The dashed part of the orbit path shows where the satellite is in the earth's shadow,  

DLR